Weather History for EGPH - February, 2013

Change the Weather History Date:

Tuesday, February 5, 2013

  Actual Average Record
Temperature  
Mean Temperature 38 °F -  
Max Temperature 44 °F 45 °F 53 °F (2004)
Min Temperature 32 °F 32 °F 23 °F (2003)
Degree Days  
Heating Degree Days 27    
Moisture  
Dew Point 33 °F    
Average Humidity 83    
Maximum Humidity 100    
Minimum Humidity 66    
Precipitation  
Precipitation 0.00 in 0.06 in - ()
Sea Level Pressure  
Sea Level Pressure 29.22 in    
Wind  
Wind Speed 16 mph ()    
Max Wind Speed 29 mph    
Max Gust Speed 32 mph    
Visibility 5.8 miles    
Events Rain , Snow    
Averages and records for this station are not official NWS values.
T = Trace of Precipitation, MM = Missing Value Source: Averaged Metar Reports

Daily Weather History Graph

Daily Weather History Graph

Search for Another Location

Airport or City:

Trip Planner

Search our weather history database for the weather conditions in past years. The results will help you decide how hot, cold, wet, or windy it might be!

Date:

Astronomy

Feb. 05, 2013 Rise Set
Actual Time 7:59 AM GMT 4:55 PM GMT
Civil Twilight 7:19 AM GMT 5:36 PM GMT
Nautical Twilight 6:35 AM GMT 6:20 PM GMT
Astronomical Twilight 5:52 AM GMT 7:03 PM GMT
Moon 3:47 AM GMT (2/5) 11:37 AM GMT (2/5)
Length of Visible Light 10h 16m
Length of Day
8h 55m
Waning Crescent, 29% of the Moon is Illuminated
Feb 5
Waning Crescent
Feb 10
New
Feb 17
First Quarter
Feb 25
Full
Mar 4
Last Quarter

Hourly Weather History & Observations

Time (GMT) Temp. Windchill Dew Point Humidity Pressure Visibility Wind Dir Wind Speed Gust Speed Precip Events Conditions
12:20 AM 33.8 °F 21.3 °F 30.2 °F 87% 29.30 in 6.2 mi WSW 24.2 mph - N/A   Scattered Clouds
12:50 AM 33.8 °F 22.2 °F 30.2 °F 87% 29.30 in 5.0 mi WSW 20.7 mph 32.2 mph N/A Snow Light Snow Showers
1:20 AM 32.0 °F 19.8 °F 30.2 °F 93% 29.30 in 6.2 mi WSW 20.7 mph - N/A   Light Freezing Drizzle
1:50 AM 32.0 °F 19.8 °F 30.2 °F 93% 29.30 in 5.0 mi WSW 20.7 mph - N/A Snow Light Snow Showers
2:20 AM 32.0 °F 21.6 °F 30.2 °F 93% 29.27 in 6.2 mi SW 15.0 mph - N/A Snow Light Snow Showers
2:50 AM 33.8 °F 22.5 °F 30.2 °F 87% 29.27 in 3.7 mi WSW 19.6 mph 31.1 mph N/A Snow Light Snow
3:20 AM 32.0 °F 19.8 °F 30.2 °F 93% 29.24 in 5.6 mi WSW 20.7 mph - N/A   Drizzle
3:50 AM 32.0 °F 19.5 °F 30.2 °F 93% 29.21 in 6.2 mi WSW 21.9 mph - N/A   Unknown
4:20 AM 32.0 °F 21.2 °F 28.4 °F 87% 29.24 in - WSW 16.1 mph - N/A   Clear
4:50 AM 32.0 °F 21.6 °F 28.4 °F 87% 29.21 in - WSW 15.0 mph - N/A   Clear
5:20 AM 32.0 °F 20.5 °F 28.4 °F 87% 29.21 in - WSW 18.4 mph - N/A   Clear
5:50 AM 32.0 °F 20.1 °F 28.4 °F 87% 29.21 in 6.2 mi WSW 19.6 mph - N/A   Scattered Clouds
6:20 AM 32.0 °F 19.5 °F 32.0 °F 100% 29.21 in 0.5 mi WSW 21.9 mph - N/A Snow Light Snow
6:50 AM 32.0 °F 20.8 °F 30.2 °F 93% 29.18 in 6.2 mi WSW 17.3 mph - N/A   Partly Cloudy
7:20 AM 32.0 °F 19.8 °F 30.2 °F 93% 29.18 in - SW 20.7 mph - N/A   Clear
7:50 AM 32.0 °F 19.5 °F 30.2 °F 93% 29.18 in - WSW 21.9 mph - N/A   Clear
8:20 AM 33.8 °F 21.9 °F 32.0 °F 93% 29.15 in - WSW 21.9 mph - N/A   Clear
8:50 AM 35.6 °F 25.5 °F 30.2 °F 81% 29.15 in 6.2 mi WSW 17.3 mph - N/A   Partly Cloudy
9:20 AM 35.6 °F 23.7 °F 30.2 °F 81% 29.12 in 6.2 mi SW 24.2 mph - N/A   Partly Cloudy
9:50 AM 35.6 °F 23.7 °F 30.2 °F 81% 29.12 in 3.1 mi SW 24.2 mph - N/A Snow Light Snow Showers
10:20 AM 35.6 °F 24.2 °F 32.0 °F 87% 29.09 in 5.0 mi SW 21.9 mph - N/A Rain Light Rain Showers
10:50 AM 35.6 °F 22.7 °F 33.8 °F 93% 29.06 in 6.2 mi SW 28.8 mph - N/A Rain Light Rain Showers
11:20 AM 35.6 °F 23.4 °F 33.8 °F 93% 29.06 in 6.2 mi WSW 25.3 mph - N/A   Mostly Cloudy
11:50 AM 37.4 °F 26.9 °F 33.8 °F 87% 29.06 in 6.2 mi WSW 20.7 mph - N/A   Mostly Cloudy
12:20 PM 39.2 °F 29.3 °F 35.6 °F 87% 29.06 in 6.2 mi WSW 20.7 mph - N/A   Mostly Cloudy
12:50 PM 39.2 °F 30.5 °F 35.6 °F 87% 29.06 in 6.2 mi WSW 16.1 mph - N/A   Partly Cloudy
1:20 PM 41.0 °F 32.8 °F 37.4 °F 87% 29.06 in 6.2 mi WSW 16.1 mph - N/A   Partly Cloudy
1:50 PM 41.0 °F 33.5 °F 37.4 °F 87% 29.06 in 6.2 mi WSW 13.8 mph - N/A   Partly Cloudy
2:20 PM 42.8 °F 35.4 °F 37.4 °F 81% 29.06 in 6.2 mi WSW 15.0 mph - N/A   Scattered Clouds
2:50 PM 41.0 °F 35.2 °F 37.4 °F 87% 29.09 in 6.2 mi WSW 9.2 mph - N/A   Scattered Clouds
3:20 PM 42.8 °F 36.6 °F 35.6 °F 76% 29.09 in 6.2 mi West 11.5 mph - N/A   Scattered Clouds
3:50 PM 44.6 °F 39.2 °F 37.4 °F 76% 29.12 in 6.2 mi West 10.4 mph - N/A   Mostly Cloudy
4:20 PM 42.8 °F 38.0 °F 37.4 °F 81% 29.12 in 6.2 mi West 8.1 mph - N/A   Mostly Cloudy
4:50 PM 42.8 °F 38.6 °F 35.6 °F 76% 29.15 in 6.2 mi West 6.9 mph - N/A   Mostly Cloudy
5:20 PM 42.8 °F 38.6 °F 35.6 °F 76% 29.18 in 6.2 mi West 6.9 mph - N/A   Mostly Cloudy
5:50 PM 42.8 °F 38.0 °F 35.6 °F 76% 29.21 in 6.2 mi WNW 8.1 mph - N/A   Mostly Cloudy
6:20 PM 42.8 °F 37.5 °F 35.6 °F 76% 29.21 in 6.2 mi West 9.2 mph - N/A   Scattered Clouds
6:50 PM 42.8 °F 36.6 °F 33.8 °F 70% 29.24 in 6.2 mi WNW 11.5 mph - N/A   Scattered Clouds
7:20 PM 42.8 °F 37.5 °F 35.6 °F 76% 29.27 in 6.2 mi WNW 9.2 mph - N/A   Mostly Cloudy
7:50 PM 42.8 °F 37.0 °F 35.6 °F 76% 29.27 in 6.2 mi NW 10.4 mph - N/A   Mostly Cloudy
8:20 PM 42.8 °F 36.6 °F 35.6 °F 76% 29.33 in 6.2 mi NW 11.5 mph - N/A   Mostly Cloudy
8:50 PM 42.8 °F 37.0 °F 33.8 °F 70% 29.36 in 6.2 mi NW 10.4 mph - N/A   Mostly Cloudy
9:20 PM 42.8 °F 37.5 °F 33.8 °F 70% 29.39 in 6.2 mi NNW 9.2 mph - N/A   Mostly Cloudy
9:50 PM 42.8 °F 37.5 °F 33.8 °F 70% 29.42 in 6.2 mi NNW 9.2 mph - N/A   Mostly Cloudy
10:20 PM 42.8 °F 37.5 °F 33.8 °F 70% 29.44 in 6.2 mi NNW 9.2 mph - N/A   Mostly Cloudy
10:50 PM 42.8 °F 37.0 °F 33.8 °F 70% 29.50 in 6.2 mi North 10.4 mph - N/A   Mostly Cloudy
11:20 PM 42.8 °F 35.8 °F 32.0 °F 66% 29.53 in 6.2 mi North 13.8 mph - N/A   Mostly Cloudy
11:50 PM 41.0 °F 34.3 °F 33.8 °F 76% 29.56 in 6.2 mi North 11.5 mph - N/A   Mostly Cloudy